This demonstration page uses our WeatherBlox Daily Observations layout. Learn more.

Left ArrowRight Arrow

40.92501, -98.34201

Hourly Observations for August 13, 2020

Temp ( °F °C ) Dew Point ( °F °C ) Humidity (%) Winds ( mph kmh ) Pressure ( in mb ) Visibility ( mi km ) Precip ( " mm )
12:53 am 00:53 Clear 73 22.8 68 20 84 84 S 9 15 29.94 1014 10 16 0.00 0.00
1:53 am 01:53 Clear 72 22.2 68 20 87 87 S 7 11 29.94 1014 10 16 0.00 0.00
2:53 am 02:53 Clear 72 22.2 68 20 87 87 SSE 7 11 29.93 1014 10 16 0.00 0.00
3:53 am 03:53 Clear 72 22.2 68 20 87 87 SSE 7 11 29.94 1014 10 16 0.00 0.00
4:53 am 04:53 Cloudy 72 22.2 69 20.6 91 91 SSE 7 11 29.95 1014 10 16 0.00 0.00
5:53 am 05:53 Mostly Clear 72 22.2 68 20 87 87 SSE 9 15 29.93 1013 10 16 0.00 0.00
6:53 am 06:53 Sunny 71 21.7 68 20 90 90 SE 10 17 29.91 1013 9 14 0.00 0.00
7:53 am 07:53 Sunny 73 22.8 68 20 84 84 SSE 10 17 29.93 1013 10 16 0.00 0.00
8:53 am 08:53 Sunny 76 24.4 70 21.1 82 82 S 13 20 29.96 1015 10 16 0.00 0.00
9:05 am 09:05 Mostly Sunny 76 24.4 70 21.1 82 82 S 17 28 29.92 1013 10 16 0.00 0.00
9:36 am 09:36 Cloudy 77 25 70 21.1 79 79 S 10 17 29.92 1013 10 16 0.00 0.00
9:53 am 09:53 Cloudy 77 25 70 21.1 79 79 S 12 19 29.97 1015 10 16 0.00 0.00
10:53 am 10:53 Cloudy 80 26.7 70 21.1 71 71 SSW 13 20 29.98 1015 10 16 0.00 0.00
11:53 am 11:53 Mostly Cloudy 84 28.9 71 21.7 65 65 SSW 13 20 29.97 1015 10 16 0.00 0.00
12:53 pm 12:53 Mostly Cloudy 87 30.6 72 22.2 61 61 SSW 12 19 29.95 1014 10 16 0.00 0.00
1:51 pm 13:51 Mostly Cloudy 88 31 72 22 59 59 SW 13 20 29.85 1011 10 16 0.00 0.00
1:53 pm 13:53 Mostly Cloudy 87 30.6 71 21.7 59 59 SW 13 20 29.94 1014 10 16 0.00 0.00
2:53 pm 14:53 Partly Cloudy 90 32.2 71 21.7 54 54 SSW 14 22 29.91 1013 10 16 0.00 0.00
3:53 pm 15:53 Mostly Sunny 91 32.8 68 20 47 47 SSW 15 24 29.90 1012 10 16 0.00 0.00
4:53 pm 16:53 Sunny 91 32.8 66 18.9 44 44 SSW 17 28 29.88 1012 10 16 0.00 0.00
5:53 pm 17:53 Sunny 90 32.2 65 18.3 44 44 S 18 30 29.88 1012 10 16 0.00 0.00
6:53 pm 18:53 Sunny 85 29.4 68 20 57 57 SSE 17 28 29.89 1012 10 16 0.00 0.00
7:53 pm 19:53 Sunny 81 27.2 66 18.9 61 61 SSE 12 19 29.90 1013 10 16 0.00 0.00
8:53 pm 20:53 Clear 79 26.1 66 18.9 65 65 S 8 13 29.93 1014 10 16 0.00 0.00
9:53 pm 21:53 Clear 76 24.4 68 20 77 77 S 8 13 29.94 1014 10 16 0.00 0.00
10:53 pm 22:53 Clear 76 24.4 69 20.6 79 79 SSE 14 22 29.92 1013 10 16 0.00 0.00
11:53 pm 23:53 Clear 76 24.4 67 19.4 74 74 S 9 15 29.93 1013 10 16 0.00 0.00

Powered by AerisWeather